Flag for U.S.A. Weather past 2 weeks in Syracuse, New York, U.S.A.

Now
66 °F

Partly sunny.


Feels Like: 66 °F
Forecast: 62 / 74 °F
Wind: 5 mph from East

Location: Syracuse Hancock International Airport

Current Time: Jul 4, 2015 at 11:58:54 AM

Latest Report: Jul 4, 2015 at 10:54 AM


Visibility: 10 mi

Pressure: 29.93 "Hg

Humidity: 90%

Dew point: 63 °F

Location of SyracuseLocation

Historic Weather in Syracuse — Graph

°F

Syracuse temperature yesterday

Maximum temperature yesterday: 77 °F (at 3:54 PM)
Minimum temperature yesterday: 50 °F (at 4:54 AM)
Average temperature yesterday: 64 °F

Past Weeks' High & Low Weather Summary

 TemperatureHumidityPressure
High84 °F (Jun 23, 1:54 PM)100% (Jun 28, 4:54 AM)30.08 "Hg (Jun 28, 4:54 AM)
Low49 °F (Jun 20, 3:54 AM)7% (Jun 21, 2:54 AM)28.69 "Hg (Jun 21, 3:54 AM)
Average66 °F76%29.89 "Hg
* Reported Jun 19 9:01 AM — Jul 4 9:54 AM, Syracuse, Weather by CustomWeather, © 2015

Note: Actual official high and low records may vary slightly from our data, if they occured in-between our weather recording intervals... More about our weather records

Advertising

Syracuse weather history for previous 24 hours

 ConditionsComfort  
Time TempWeatherWind HumidityBarometerVisibility
9:54 AM
Sat, Jul 4
65 °FMostly cloudy.6 mph94%29.93 "Hg9 mi
8:54 AM64 °FLight rain. Mostly cloudy.No wind94%29.92 "Hg10 mi
7:54 AM61 °FMostly cloudy.5 mph87%29.91 "Hg10 mi
6:54 AM60 °FMostly cloudy.3 mph86%29.90 "Hg10 mi
5:54 AM60 °FOvercast.5 mph83%29.89 "Hg10 mi
4:54 AM60 °FMostly cloudy.5 mph83%29.88 "Hg10 mi
3:54 AM60 °FOvercast.7 mph86%29.88 "Hg10 mi
2:54 AM60 °FOvercast.5 mph86%29.90 "Hg10 mi
1:54 AM61 °FPartly cloudy.6 mph83%29.90 "Hg10 mi
12:54 AM63 °FPartly cloudy.5 mph75%29.92 "Hg10 mi
11:54 PM
Fri, Jul 3
62 °FPassing clouds.3 mph78%29.92 "Hg10 mi
10:54 PM62 °FOvercast.3 mph80%29.92 "Hg10 mi
9:54 PM65 °FMostly cloudy.No wind73%29.93 "Hg10 mi
8:54 PM66 °FMore clouds than sun.5 mph68%29.92 "Hg10 mi
7:54 PM71 °FMore clouds than sun.3 mph55%29.93 "Hg10 mi
6:54 PM72 °FBroken clouds.6 mph52%29.93 "Hg10 mi
5:54 PM74 °FBroken clouds.6 mph45%29.94 "Hg10 mi
4:54 PM76 °FBroken clouds.5 mph42%29.94 "Hg10 mi
3:54 PM77 °FBroken clouds.6 mph40%29.96 "Hg10 mi
2:54 PM75 °FPartly sunny.No wind43%29.96 "Hg10 mi
1:54 PM74 °FScattered clouds.7 mph41%29.98 "Hg10 mi
12:54 PM73 °FScattered clouds.3 mph40%29.99 "Hg10 mi
11:54 AM72 °FPassing clouds.3 mph48%30.00 "Hg10 mi
Weather by CustomWeather, © 2015

See weather overviewHow to use our weather pages